Regional Weather Roundup
Issued by NWS

Home | Current Version | Previous Version | Text Only | Print | Product List | Glossary Off
Versions: 1 2 3 4 5 6 7 8 9 10 11 12 13 14 15 16 17 18 19 20 21 22 23 24 25 26 27 28 29 30 31 32 33 34 35 36 37 38 39 40 41 42 43 44 45 46 47 48 49 50

000
ASUS43 KLMK 220402
RWRKY
KENTUCKY REGIONAL WEATHER ROUNDUP
NATIONAL WEATHER SERVICE LOUISVILLE KY
1100 PM EST WED FEB 21 2018

NOTE "FAIR" INDICATES FEW OR NO CLOUDS BELOW 12,000 FEET
WITH NO SIGNIFICANT WEATHER AND/OR OBSTRUCTIONS TO VISIBILITY.

KYZ001>023-026-027-061>063-070>075-220500-
WESTERN AND SOUTH CENTRAL KENTUCKY

CITY           SKY/WX    TMP DP  RH WIND       PRES   REMARKS
PADUCAH        RAIN      40  37  89 N13       30.38R FOG     WCI  32
HENDERSON      LGT RAIN  41  40  96 N16       30.40F
OWENSBORO      RAIN      44  43  96 N10       30.39S
HOPKINSVILLE   LGT RAIN  45  45 100 NE6       30.32F
BOWLING GREEN  LGT RAIN  50  49  96 NE12      30.33F
GLASGOW        NOT AVBL
$$

KYZ024-025-028>034-038-045-046-053-220500-
NORTH CENTRAL KENTUCKY

CITY           SKY/WX    TMP DP  RH WIND       PRES   REMARKS
LOUISVILLE/SDF LGT RAIN  47  44  90 NE8       30.40F
LOUISVILLE/LOU LGT RAIN  46  45  96 NE7G18    30.40F
FORT KNOX      LGT RAIN  46  45  99 NE7       30.37F
$$

KYZ035>037-039>044-047>052-055>060-089>105-220500-
NORTHEAST KENTUCKY

CITY           SKY/WX    TMP DP  RH WIND       PRES   REMARKS
LEXINGTON      CLOUDY    48  45  89 NE15      30.39F
COVINGTON      LGT RAIN  43  43 100 E14       30.43F
FRANKFORT      CLOUDY    47  43  86 N7        30.40F
$$

KYZ054-064>069-076>088-106>120-220500-
SOUTHEAST KENTUCKY

CITY           SKY/WX    TMP DP  RH WIND       PRES   REMARKS
JACKSON        CLOUDY    56  54  93 VRB3      30.38S
LONDON         CLOUDY    58  55  90 NE7       30.35S
SOMERSET       NOT AVBL
MIDDLESBORO    FAIR      64  59  85 SW3       30.33F
MONTICELLO     NOT AVBL
$$





USA.gov is the U.S. government's official web portal to all federal, state and local government web resources and services.